Location: The Saddle
(36.8333°N, 80.3417°W)
Time: 13:06:25
(UTC-04:00)

SR - Pass Details

Date: 26 May 2024
Orbit: 580 x 858 km, 66.7° (Epoch: 14 June)

Event Time Altitude Azimuth Distance (km) Brightness Sun altitude
Rises 01:48:52 0° 353° (N) 2,847 ? -31.5°
Reaches altitude 10° 01:52:46 10° 28° (NNE) 1,909 ? -31.4°
Maximum altitude 01:54:08 11° 47° (NE) 1,817 ? -31.3°
Drops below altitude 10° 01:55:30 10° 66° (ENE) 1,896 ? -31.3°
Enters shadow 01:56:22 - 76° (ENE) 2,029 ? -31.3°
